{"data":{"norad_id":47936,"intl_designator":"2021-022E","name":"GRUS-1D","alt_names":[],"object_type":"PAYLOAD","status":"ACTIVE","operator":null,"country":"JPN","launch_date":"2021-03-22","launch_site_code":"TYMSC","launch_vehicle":null,"mission":null,"orbit_class":"UNKNOWN","rcs_meters":null,"size_class":null,"mass_kg":null,"dimensions":null,"purposes":[],"wikipedia_slug":null,"has_3d_model":false,"image_url":null,"decayed_at":null,"tle_current":{"epoch":"2026-05-25T05:34:41.449152Z","epoch_age_seconds":48342,"freshness":"FRESH","line1":"1 47936U 21022E   26145.23242418  .00001964  00000+0  16813-3 0  9991","line2":"2 47936  97.5427  29.3854 0012856  34.4964 325.7091 14.98639933282462","mean_motion":14.98639933,"eccentricity":0.0012856,"inclination_deg":97.5427,"raan_deg":29.3854,"arg_perigee_deg":34.4964,"mean_anomaly_deg":325.7091,"bstar":0.00016813,"rev_number":28246,"period_min":96.087123283669,"perigee_km":562.16367787171,"apogee_km":580.03154991095,"semimajor_km":6949.2346138913,"source":"CELESTRAK","updated_at":"2026-05-25T13:37:56.626918Z"}}}